Home   Weather   Bakersfield   Past weeks

Flag for USA Past Weather in Bakersfield, California, USA — Yesterday and Last 2 Weeks

Now
71 °F

Clear.


Feels Like: 77 °F
Forecast: 69 / 95 °F
Wind: No wind

Location: Meadows Field

Current Time: Aug 31, 2016 at 7:31:30 AM

Latest Report: Aug 31, 2016 at 6:54 AM


Visibility: 9 mi

Pressure: 29.86 "Hg

Humidity: 47%

Dew Point: 50 °F

Location of BakersfieldLocation

Past Weather in Bakersfield — Graph

°F

Bakersfield Temperature Yesterday

Maximum temperature yesterday: 94 °F (at 4:54 PM)
Minimum temperature yesterday: 69 °F (at 6:54 AM)
Average temperature yesterday: 82 °F

High & Low Weather Summary for the Past Weeks

 TemperatureHumidityPressure
High104 °F (Aug 17, 3:54 PM)61% (Aug 30, 3:54 AM)30.03 "Hg (Aug 30, 3:54 AM)
Low64 °F (Aug 27, 5:54 AM)7% (Aug 18, 4:54 PM)29.67 "Hg (Aug 18, 5:54 PM)
Average84 °F28%29.86 "Hg
* Reported Aug 16 5:54 AM — Aug 31 5:54 AM, Bakersfield, Weather by CustomWeather, © 2016

Note: Actual official high and low records may vary slightly from our data, if they occured in-between our weather recording intervals... More about our weather records

Advertising

Bakersfield Weather History for the Previous 24 Hours

Scroll right to see more
 ConditionsComfort  
Time TempWeatherWind HumidityBarometerVisibility
5:54 AM
Wed, Aug 31
73 °FClear.No wind41%29.83 "Hg10 mi
4:54 AM74 °FClear.5 mph38%29.83 "Hg10 mi
3:54 AM77 °FClear.6 mph39%29.83 "Hg10 mi
2:54 AM76 °FClear.No wind47%29.83 "Hg10 mi
1:54 AM79 °FClear.3 mph39%29.83 "Hg10 mi
12:54 AM81 °FClear.3 mph38%29.84 "Hg10 mi
11:54 PM
Tue, Aug 30
79 °FClear.No wind35%29.84 "Hg10 mi
10:54 PM82 °FClear.No wind29%29.84 "Hg10 mi
9:54 PM82 °FClear.No wind32%29.84 "Hg10 mi
8:54 PM87 °FClear.5 mph27%29.83 "Hg10 mi
7:54 PM89 °FSunny.5 mph27%29.81 "Hg8 mi
6:54 PM91 °FSunny.7 mph24%29.80 "Hg10 mi
5:54 PM93 °FSunny.6 mph23%29.80 "Hg10 mi
4:54 PM94 °FSunny.7 mph23%29.82 "Hg10 mi
3:54 PM93 °FSunny.9 mph23%29.83 "Hg10 mi
2:54 PM93 °FSunny.7 mph23%29.84 "Hg10 mi
1:54 PM90 °FSunny.3 mph27%29.87 "Hg10 mi
12:54 PM87 °FSunny.3 mph26%29.90 "Hg10 mi
11:54 AM84 °FSunny.5 mph30%29.93 "Hg10 mi
10:54 AM81 °FSunny.5 mph38%29.95 "Hg10 mi
9:54 AM78 °FSunny.No wind42%29.96 "Hg10 mi
8:54 AM74 °FSunny.5 mph48%29.96 "Hg10 mi
7:54 AM72 °FSunny.5 mph53%29.95 "Hg9 mi
Weather by CustomWeather, © 2016

See weather overviewHow to use our weather pages